Location: Newark
(18.8198°N, 82.1672°E)
Time: 12:00:09
(UTC+00:00)

NOAA 19 - Visible Passes

Search period start: 22 October 2019 00:00
Search period end: 01 November 2019 00:00
Orbit: 841 x 862 km, 99.2° (Epoch: 21 October)

Date Brightness Start Highest point End Pass type
(mag) Time Alt. Az. Time Alt. Az. Time Alt. Az.
22 Oct 7.7 23:00:36 10° NE 23:04:50 22° E 23:09:03 10° SSE visible
23 Oct 8.2 22:49:44 10° ENE 22:53:07 17° E 22:56:31 10° SE visible
24 Oct 8.5 22:39:30 10° ENE 22:41:24 12° E 22:43:19 10° ESE visible
26 Oct 5.2 00:04:56 10° N 00:10:26 72° WNW 00:15:58 10° SSW visible
26 Oct 5.3 23:53:15 10° NNE 23:58:48 86° ESE 00:04:21 10° SSW visible
27 Oct 8.8 12:51:47 10° WSW 12:53:43 12° W 12:55:40 10° WNW visible
27 Oct 5.8 23:41:39 10° NNE 23:47:08 64° ESE 23:52:38 10° S visible
28 Oct 8.4 12:38:38 10° SW 12:42:00 17° W 12:45:23 10° WNW visible
28 Oct 6.4 23:30:09 10° NNE 23:35:28 47° E 23:40:47 10° S visible
29 Oct 8.1 12:26:06 10° SSW 12:30:17 23° W 12:34:30 10° NW visible
29 Oct 7.0 23:18:47 10° NE 23:23:48 35° E 23:28:48 10° SSE visible
30 Oct 7.5 12:13:52 10° SSW 12:18:36 31° W 12:23:20 10° NW visible
30 Oct 7.5 23:07:33 10° NE 23:12:06 26° E 23:16:39 10° SSE visible
31 Oct 8.0 22:56:31 10° NE 23:00:24 19° E 23:04:16 10° SE visible
